Weather History for Naples, Italy

Change the Weather History Date:

Monday, October 28, 2013

  Actual Average Record
Temperature  
Mean Temperature 68 °F -  
Max Temperature 75 °F 64 °F 80 °F (1999)
Min Temperature 60 °F 46 °F 46 °F (1996)
Cooling Degree Days 2    
Growing Degree Days 18 (Base 50)    
Moisture  
Dew Point 62 °F    
Average Humidity 84    
Maximum Humidity 94    
Minimum Humidity 69    
Precipitation  
Precipitation 0.00 in 0.21 in - ()
Sea Level Pressure  
Sea Level Pressure 30.15 in    
Wind  
Wind Speed 2 mph ()    
Max Wind Speed 9 mph    
Max Gust Speed -    
Visibility 4.9 miles    
Events      
Averages and records for this station are not official NWS values.
T = Trace of Precipitation, MM = Missing Value Source: Averaged Metar Reports

Daily Weather History Graph

Daily Weather History Graph

Search for Another Location

Airport:

Trip Planner

Search our weather history database for the weather conditions in past years. The results will help you decide how hot, cold, wet, or windy it might be!

Date:

Astronomy

Oct. 28, 2013 Rise Set
Actual Time 6:28 AM CET 5:03 PM CET
Civil Twilight 6:00 AM CET 5:32 PM CET
Nautical Twilight 5:28 AM CET 6:04 PM CET
Astronomical Twilight 4:56 AM CET 6:36 PM CET
Moon 12:02 AM CET (10/28) 1:38 PM CET (10/28)
Length of Visible Light 11h 31m
Length of Day
10h 35m
Last Quarter, 36% of the Moon is Illuminated
Oct 28
Last Quarter
Nov 3
New
Nov 10
First Quarter
Nov 17
Full
Nov 25
Last Quarter

Hourly Weather History & Observations

Time (CET) Temp. Dew Point Humidity Pressure Visibility Wind Dir Wind Speed Gust Speed Precip Events Conditions
12:20 AM 62.6 °F 60.8 °F 94% 30.21 in 4.3 mi Calm Calm - N/A   Scattered Clouds
12:50 AM 62.6 °F 60.8 °F 94% 30.21 in 4.3 mi Variable 1.2 mph - N/A   Partly Cloudy
1:20 AM 62.6 °F 59.0 °F 88% 30.21 in 4.3 mi West 1.2 mph - N/A   Partly Cloudy
1:50 AM 62.6 °F 59.0 °F 88% 30.21 in 4.3 mi West 2.3 mph - N/A   Partly Cloudy
2:20 AM 60.8 °F 59.0 °F 94% 30.18 in 4.3 mi Calm Calm - N/A   Partly Cloudy
2:50 AM 60.8 °F 59.0 °F 94% 30.18 in 4.3 mi Variable 1.2 mph - N/A   Partly Cloudy
3:20 AM 60.8 °F 59.0 °F 94% 30.15 in 3.7 mi Calm Calm - N/A   Partly Cloudy
3:50 AM 60.8 °F 59.0 °F 94% 30.18 in 3.7 mi West 3.5 mph - N/A   Partly Cloudy
4:20 AM 62.6 °F 60.8 °F 94% 30.15 in 3.7 mi West 2.3 mph - N/A   Partly Cloudy
4:50 AM 62.6 °F 60.8 °F 94% 30.15 in 3.7 mi Calm Calm - N/A   Partly Cloudy
5:20 AM 62.6 °F 60.8 °F 94% 30.15 in 3.7 mi Variable 1.2 mph - N/A   Scattered Clouds
5:50 AM 64.4 °F 60.8 °F 88% 30.15 in 3.1 mi Variable 1.2 mph - N/A   Scattered Clouds
6:20 AM 62.6 °F 60.8 °F 94% 30.15 in 3.1 mi NNE 2.3 mph - N/A   Mostly Cloudy
6:50 AM 62.6 °F 59.0 °F 88% 30.15 in 3.1 mi North 1.2 mph - N/A   Mostly Cloudy
7:20 AM 62.6 °F 60.8 °F 94% 30.18 in 3.1 mi Calm Calm - N/A   Mostly Cloudy
7:50 AM 64.4 °F 60.8 °F 88% 30.18 in 3.1 mi NNE 2.3 mph - N/A   Mostly Cloudy
8:20 AM 69.8 °F 62.6 °F 78% 30.18 in 3.1 mi Calm Calm - N/A   Mostly Cloudy
8:50 AM 71.6 °F 64.4 °F 78% 30.18 in 3.7 mi Variable 1.2 mph - N/A   Mostly Cloudy
9:20 AM 71.6 °F 62.6 °F 73% 30.18 in 3.7 mi SSE 3.5 mph - N/A   Mostly Cloudy
9:50 AM 71.6 °F 62.6 °F 73% 30.18 in - North - - N/A   Mostly Cloudy
10:20 AM 71.6 °F 62.6 °F 73% 30.18 in 4.3 mi Variable 2.3 mph - N/A   Mostly Cloudy
10:50 AM 71.6 °F 62.6 °F 73% 30.18 in 5.0 mi South 3.5 mph - N/A   Mostly Cloudy
11:20 AM 73.4 °F 64.4 °F 73% 30.18 in 5.0 mi South 4.6 mph - N/A   Scattered Clouds
11:50 AM 75.2 °F 64.4 °F 69% 30.15 in 5.0 mi SSE 4.6 mph - N/A   Scattered Clouds
12:20 PM 73.4 °F 62.6 °F 69% 30.15 in 6.2 mi South 5.8 mph - N/A   Scattered Clouds
12:50 PM 71.6 °F 62.6 °F 73% 30.15 in 6.2 mi SSW 8.1 mph - N/A   Mostly Cloudy
1:20 PM 73.4 °F 64.4 °F 73% 30.15 in 6.2 mi SSW 9.2 mph - N/A   Mostly Cloudy
1:50 PM 73.4 °F 64.4 °F 73% 30.12 in 6.2 mi South 9.2 mph - N/A   Mostly Cloudy
2:20 PM 75.2 °F 64.4 °F 69% 30.12 in 6.2 mi SSW 9.2 mph - N/A   Mostly Cloudy
2:50 PM 73.4 °F 64.4 °F 73% 30.12 in 6.2 mi SSW 8.1 mph - N/A   Mostly Cloudy
3:20 PM 73.4 °F 64.4 °F 73% 30.12 in 6.2 mi SSW 8.1 mph - N/A   Mostly Cloudy
3:50 PM 71.6 °F 64.4 °F 78% 30.12 in 6.2 mi SSW 6.9 mph - N/A   Scattered Clouds
4:20 PM 71.6 °F 64.4 °F 78% 30.12 in 6.2 mi SSW 4.6 mph - N/A   Scattered Clouds
4:50 PM 69.8 °F 62.6 °F 78% 30.12 in 6.2 mi South 4.6 mph - N/A   Scattered Clouds
5:20 PM 69.8 °F 64.4 °F 83% 30.12 in 6.2 mi South 3.5 mph - N/A   Scattered Clouds
5:50 PM 69.8 °F 64.4 °F 83% 30.12 in 6.2 mi South 3.5 mph - N/A   Scattered Clouds
6:20 PM 68.0 °F 62.6 °F 83% 30.12 in 6.2 mi SSW 2.3 mph - N/A   Scattered Clouds
6:50 PM - - N/A% - 6.2 mi SSW 2.3 mph - N/A   Scattered Clouds
7:50 PM 68.0 °F 62.6 °F 83% 30.12 in 6.2 mi West 2.3 mph - N/A   Scattered Clouds
8:20 PM 66.2 °F 62.6 °F 88% 30.12 in 6.2 mi Variable 1.2 mph - N/A   Partly Cloudy
8:50 PM 64.4 °F 60.8 °F 88% 30.12 in 6.2 mi West 2.3 mph - N/A   Partly Cloudy
9:20 PM 66.2 °F 62.6 °F 88% 30.12 in 6.2 mi Variable 1.2 mph - N/A   Partly Cloudy
9:50 PM 64.4 °F 60.8 °F 88% 30.12 in 5.0 mi Variable 1.2 mph - N/A   Unknown
10:20 PM 62.6 °F 60.8 °F 94% 30.12 in 5.0 mi Variable 1.2 mph - N/A   Unknown
10:50 PM 64.4 °F 60.8 °F 88% 30.12 in 5.0 mi Variable 1.2 mph - N/A   Unknown
11:20 PM 64.4 °F 60.8 °F 88% 30.12 in 5.0 mi West 1.2 mph - N/A   Unknown
11:50 PM 62.6 °F 60.8 °F 94% 30.12 in 5.0 mi West 1.2 mph - N/A   Unknown